Location: Linz
(48.3300°N, 14.3000°E)
Time: 15:07:55
(UTC+01:00)

Vanguard 1 Rocket - Visible Passes

Search period start: 21 November 2017 00:00
Search period end: 01 December 2017 00:00
Orbit: 655 x 4222 km, 34.3° (Epoch: 21 November)

Date Brightness Start Highest point End Pass type
(mag) Time Alt. Az. Time Alt. Az. Time Alt. Az.
21 Nov 10.8 01:09:49 31° ESE 01:09:49 31° ESE 01:16:21 10° ESE visible
21 Nov 10.2 03:27:06 43° SSW 03:27:10 43° SSW 03:40:36 10° SE visible
21 Nov 10.7 05:44:24 13° W 05:51:58 17° SW 05:59:30 10° SSW visible
21 Nov 11.4 18:38:57 10° SE 18:47:34 14° ESE 18:47:34 14° ESE visible
21 Nov 11.1 20:54:16 10° SSW 21:04:52 30° S 21:04:52 30° S visible
21 Nov 11.3 23:19:54 10° WSW 00:02:43 15° ESE 00:04:30 10° ESE visible
22 Nov 10.4 02:20:01 43° SSE 02:20:01 43° SSE 02:30:16 10° SE visible
22 Nov 10.5 04:37:19 27° WSW 04:41:03 28° SW 04:52:09 10° S visible
22 Nov 11.0 19:44:36 10° S 19:57:55 27° SSE 19:57:55 27° SSE visible
22 Nov 11.2 22:07:19 10° SW 22:55:40 - E 22:15:14 27° SSW visible
23 Nov 10.9 01:12:58 29° SE 01:12:58 29° SE 01:19:10 10° ESE visible
23 Nov 10.4 03:30:17 39° SSW 03:30:17 39° SSW 03:43:02 10° SSE visible
23 Nov 10.9 05:47:34 11° WSW 05:53:44 13° WSW 05:59:45 10° SW visible
23 Nov 11.2 18:37:17 10° SSE 18:49:17 18° SE 18:50:57 18° ESE visible
23 Nov 10.9 20:55:52 10° SSW 21:08:15 35° S 21:08:15 35° S visible
23 Nov 11.4 23:22:09 10° WSW 00:05:56 14° ESE 00:07:18 10° ESE visible
24 Nov 10.5 02:23:15 39° SSE 02:23:15 39° SSE 02:32:53 10° SE visible
24 Nov 10.7 04:40:33 24° WSW 04:42:55 24° SW 04:53:52 10° S visible
24 Nov 10.9 19:45:43 10° SSW 20:01:15 32° SE 20:01:15 32° SE visible
24 Nov 11.1 22:09:26 10° SW 22:58:55 - E 22:18:33 31° SW visible
25 Nov 10.9 01:16:14 27° SE 01:16:14 27° SE 01:21:53 10° ESE visible
25 Nov 10.5 03:33:32 35° SSW 03:33:32 35° SSW 03:45:15 10° SSE visible
25 Nov 11.1 18:37:16 10° S 18:50:48 22° SE 18:54:15 22° ESE visible
25 Nov 10.8 20:57:47 10° SW 21:11:32 40° S 21:11:32 40° S visible
25 Nov 11.5 23:24:32 10° WSW 00:09:15 12° ESE 00:10:02 10° ESE visible
26 Nov 10.6 02:26:33 35° SSE 02:26:33 35° SSE 02:35:21 10° SE visible
26 Nov 10.8 04:43:52 20° SW 04:44:38 20° SW 04:55:05 10° SSW visible
26 Nov 11.3 17:33:00 10° SE 17:39:24 12° ESE 17:46:34 10° ESE visible
26 Nov 10.7 19:47:16 10° SSW 20:04:29 37° SE 20:04:29 37° SE visible
26 Nov 11.0 22:11:45 10° WSW 22:21:47 34° SW 22:21:47 34° SW visible
27 Nov 11.0 01:19:35 24° SE 01:19:35 24° SE 01:24:27 10° SE visible
27 Nov 10.7 03:36:53 30° SSW 03:36:53 30° SSW 03:47:09 10° SSE visible
27 Nov 10.9 18:38:08 10° S 18:52:23 27° SE 18:57:24 25° ESE visible
27 Nov 10.7 20:59:58 10° SW 21:14:42 45° S 21:14:42 45° S visible
27 Nov 11.4 23:27:02 10° WSW 00:12:37 10° ESE 00:12:40 10° ESE visible
28 Nov 10.8 02:29:55 30° S 02:29:55 30° S 02:37:35 10° SSE visible
28 Nov 11.0 04:47:14 16° SW 04:47:14 16° SW 04:55:27 10° SSW visible
28 Nov 11.2 17:31:24 10° SSE 17:40:53 16° ESE 17:50:17 12° E visible
28 Nov 10.6 19:49:11 10° SSW 20:06:39 41° SSE 20:07:35 41° SE visible
28 Nov 10.9 22:14:13 10° WSW 22:24:52 37° SW 22:24:52 37° SW visible
29 Nov 11.2 01:22:58 20° SE 01:22:58 20° SE 01:26:53 10° SE visible
29 Nov 10.9 03:40:17 24° SSW 03:40:17 24° SSW 03:48:40 10° S visible
29 Nov 10.8 18:39:34 10° SSW 18:54:05 31° SE 19:00:25 28° ESE visible
29 Nov 10.6 21:02:20 10° SW 21:17:42 49° S 21:17:42 49° S visible
29 Nov 11.4 23:29:37 10° W 00:16:01 - ESE 23:35:00 22° WSW visible
30 Nov 11.0 02:33:19 25° S 02:33:19 25° S 02:39:34 10° SSE visible
30 Nov 11.2 04:50:37 12° SW 04:50:37 12° SW 04:54:03 10° SW visible
30 Nov 11.0 17:31:39 10° SSE 17:42:27 20° SE 17:53:14 14° E visible
30 Nov 10.5 19:51:22 10° SW 20:08:36 45° SSE 20:10:31 45° SE visible
30 Nov 10.9 22:16:49 10° WSW 22:27:48 39° SW 22:27:48 39° SW visible
